Wind_Speed
30 30 29 29 29 29 30 29 27 27 26 26 26 25 24 23 23 22 22 22 21 21 21 21 21 21 21 21 21 21 21 21 21 21 21 22 22 23 23 23 23 23 24
31 30 30 30 30 30 31 31 30 29 28 27 27 27 26 25 25 24 24 24 23 24 23 23 22 22 22 22 22 22 22 22 22 22 22 23 23 23 23 23 23 24 24
33 32 32 32 32 32 32 32 33 32 30 29 29 29 29 28 27 26 26 26 26 25 25 25 24 24 24 23 23 24 24 24 24 24 24 24 24 24 24 24 25 25 25
34 34 34 33 33 34 33 33 34 34 33 32 31 31 31 30 29 29 28 28 27 27 27 26 26 25 25 25 25 25 25 25 25 26 26 26 26 26 26 26 26 27 27
35 35 36 35 35 34 34 34 35 35 34 33 33 33 33 32 31 31 30 30 30 29 28 28 27 27 27 27 27 26 26 26 27 27 27 28 28 28 28 28 28 28 28
37 35 35 35 35 35 35 35 35 35 34 34 34 34 33 33 33 32 32 32 31 31 30 29 29 29 29 29 28 28 28 28 29 29 29 29 30 30 29 30 30 30 30
37 35 34 35 36 36 35 35 35 36 36 35 35 34 34 34 33 33 33 33 32 32 31 31 30 30 30 30 30 30 30 30 31 31 31 31 31 31 31 31 31 31 31
37 37 36 36 36 36 35 35 35 36 37 38 37 36 35 35 34 34 34 34 33 33 33 32 32 32 31 31 31 31 31 32 32 32 33 33 33 33 33 33 33 33 33
38 38 38 38 38 37 37 37 37 37 38 39 39 39 38 37 36 36 35 35 35 34 34 34 34 34 34 33 33 33 34 34 34 34 34 34 35 35 35 35 35 35 35
40 40 40 39 39 40 39 39 39 40 40 40 40 41 40 39 38 38 38 37 37 36 36 35 35 35 35 36 36 36 36 36 37 37 36 36 36 37 37 37 37 37 37
40 41 40 40 41 41 41 40 40 41 41 41 41 41 41 41 40 39 39 39 38 38 37 37 37 37 37 38 39 39 39 39 39 39 39 39 39 39 39 39 39 39 39
39 40 40 40 40 41 41 40 40 41 41 41 41 41 41 41 41 40 39 38 38 38 38 39 39 39 39 39 39 40 40 41 41 41 41 41 41 41 42 42 42 42 42
39 40 41 40 41 42 42 41 41 41 42 41 41 41 41 41 41 41 41 40 39 39 40 40 41 41 41 40 40 41 42 42 42 42 42 43 43 44 44 44 45 45 44
40 40 42 42 42 42 42 41 41 42 42 42 41 42 42 42 42 42 42 42 41 41 41 42 42 42 43 43 43 43 43 44 44 44 44 45 45 45 45 46 46 47 46
41 42 42 42 42 42 43 43 42 43 42 42 41 42 42 42 43 43 44 44 43 44 43 44 44 44 44 45 46 46 45 45 46 46 46 46 47 47 47 47 48 48 48
42 42 43 42 41 42 43 42 42 42 42 43 42 42 43 44 45 45 45 46 45 45 45 45 46 46 46 46 47 47 47 47 47 47 47 48 48 48 48 48 49 50 50
41 42 42 42 42 42 42 42 43 43 44 44 44 44 44 45 46 46 47 47 47 48 48 47 47 47 48 47 47 47 48 49 50 49 49 49 49 49 50 51 50 50 51
42 43 44 44 44 44 44 43 43 44 44 44 45 45 45 46 46 47 47 48 49 49 49 50 48 47 47 48 48 49 49 50 51 51 51 51 51 51 52 52 52 52 52
42 43 44 44 44 43 43 43 44 44 44 45 46 46 46 47 47 48 48 49 49 50 51 51 49 48 48 48 50 51 51 52 52 52 53 54 53 53 54 54 54 53 53
41 42 43 43 43 43 44 44 44 45 45 46 46 46 47 47 48 49 50 51 51 51 50 51 51 51 50 51 52 52 53 54 54 54 55 55 55 55 54 54 54 53 54
39 40 41 42 42 42 44 44 45 46 46 46 46 47 48 48 48 49 50 51 51 51 52 53 53 53 53 53 53 54 54 55 55 56 56 57 57 55 54 54 54 54 54
38 38 39 42 42 42 42 45 45 46 46 46 46 47 47 48 49 50 50 51 52 52 53 54 54 54 55 55 56 56 57 57 57 57 57 56 56 55 54 55 55 55 55
38 38 39 40 41 41 42 43 44 45 45 46 47 47 49 49 49 49 50 51 52 53 54 55 56 55 56 57 57 58 58 57 57 57 57 57 56 56 55 56 57 57 57
39 40 40 41 42 42 43 44 44 45 46 47 48 49 49 50 51 51 52 52 53 53 55 56 56 56 56 57 57 58 58 58 57 56 57 58 58 58 57 57 58 58 57
40 41 42 42 44 44 44 45 45 46 47 48 49 49 50 51 51 52 53 53 54 54 55 55 56 56 57 57 57 57 57 57 57 57 57 57 57 58 58 57 57 57 56
41 42 42 43 45 46 46 47 47 47 48 48 49 50 51 51 52 52 53 53 54 54 54 55 54 54 54 54 55 56 56 56 57 57 56 57 57 58 57 56 55 55 55
Wind_Direction
246 247 246 245 244 244 244 244 246 249 252 254 255 257 259 261 262 263 265 267 270 272 274 277 278 280 282 285 286 288 289 289 289 290 290 291 292 294 296 297 297 298 299
246 248 248 247 246 247 245 245 246 250 252 253 254 256 258 260 263 264 265 267 269 271 273 275 277 279 281 282 283 285 288 289 289 289 290 291 292 293 295 296 295 297 299
247 248 250 249 249 249 248 247 247 249 252 253 254 255 257 259 262 264 265 267 268 270 271 273 275 277 279 280 280 282 285 288 289 289 290 291 291 293 294 295 295 296 298
247 248 249 250 249 249 250 249 248 250 252 253 254 255 256 258 260 263 265 267 269 270 270 271 273 275 276 277 280 282 284 286 288 289 289 289 290 291 292 294 294 296 297
247 249 249 250 250 250 250 250 249 251 253 254 255 255 256 257 259 261 263 265 267 269 270 270 271 273 274 276 278 281 283 284 286 288 288 288 289 290 292 292 293 294 295
249 251 251 250 251 251 251 252 251 251 252 254 254 255 257 258 259 261 263 265 266 268 269 270 272 272 273 274 277 279 282 284 285 286 287 288 288 289 290 291 292 293 293
250 250 252 252 252 252 253 253 253 253 252 252 253 255 257 259 259 261 262 264 265 267 269 270 271 272 272 273 275 277 279 282 284 285 286 286 287 287 288 289 290 291 293
251 250 251 252 251 251 253 254 255 254 252 252 253 255 256 258 259 260 260 263 265 267 268 269 270 271 272 273 274 276 278 281 283 285 286 286 286 286 286 287 288 289 291
251 251 252 252 251 251 253 255 255 255 254 253 254 256 257 258 259 260 261 262 264 265 267 268 269 270 271 273 275 276 278 280 282 283 284 285 286 285 285 286 287 288 289
250 250 251 251 252 252 253 255 256 256 256 256 256 257 258 259 259 260 261 262 263 264 266 267 268 270 271 273 274 276 278 279 281 282 283 284 285 286 285 285 286 288 288
251 251 251 251 251 251 252 254 255 256 256 256 256 256 257 258 260 262 261 262 263 264 266 266 267 269 271 273 274 276 278 280 281 281 282 283 284 285 284 284 285 287 288
253 252 251 251 251 251 251 253 255 256 256 256 256 256 256 258 260 262 262 262 263 263 265 267 268 269 271 273 275 277 279 280 281 281 282 282 283 283 284 284 284 285 287
254 253 252 252 253 253 252 254 255 256 256 257 257 256 257 258 260 262 262 263 263 264 266 267 269 270 271 273 275 276 278 280 281 281 282 283 283 283 284 283 283 284 286
258 256 255 254 254 254 252 254 256 257 257 257 256 256 257 258 259 261 262 263 263 264 266 268 269 270 273 274 276 277 279 280 280 280 281 283 283 283 284 284 283 283 284
258 258 256 255 255 254 253 256 257 258 257 255 255 256 256 257 259 260 261 263 265 265 267 269 269 271 273 275 276 277 278 279 279 280 281 282 283 283 284 284 284 283 283
258 258 258 257 257 254 253 254 255 257 256 256 255 256 257 257 259 260 261 263 266 267 269 270 271 272 273 274 276 276 277 277 278 280 281 282 283 283 284 284 284 282 282
257 257 257 256 256 255 254 255 256 257 257 256 256 257 258 259 260 262 262 263 266 268 271 272 273 273 274 274 275 276 276 278 278 279 281 281 282 283 284 284 285 284 283
256 256 256 257 256 256 256 256 257 258 257 256 256 257 259 261 262 262 263 265 267 269 272 273 274 274 275 276 275 276 277 279 280 280 281 282 283 284 284 284 285 284 284
258 257 256 256 255 256 258 259 257 258 257 257 258 259 261 262 263 264 265 266 268 269 272 273 274 274 276 277 277 278 278 279 280 281 282 282 283 285 285 285 285 285 284
258 257 256 255 257 259 259 258 258 259 258 259 259 261 262 263 264 265 266 267 269 270 271 272 272 273 274 276 278 278 279 279 280 281 282 282 283 284 285 285 285 285 285
261 258 256 256 259 260 259 259 260 259 258 259 260 262 263 265 267 268 269 269 270 270 271 272 273 273 275 276 278 279 279 280 281 281 282 282 283 284 284 284 284 284 285
262 259 258 257 259 260 260 260 261 260 260 262 263 265 266 267 269 271 271 271 271 271 272 272 273 275 277 278 279 280 281 281 281 281 282 282 283 284 284 284 284 284 284
262 261 261 261 261 260 262 261 262 262 263 264 266 267 268 269 270 271 272 273 273 273 273 274 274 276 278 279 280 280 281 282 282 282 282 282 283 283 284 284 284 284 284
264 264 265 264 263 263 263 264 264 265 266 266 268 269 270 271 271 272 273 273 274 275 275 275 277 278 279 279 280 281 281 281 281 282 282 282 282 283 283 284 285 284 284
265 265 265 265 265 265 266 266 266 266 267 268 269 270 272 272 272 273 274 275 275 276 277 278 279 279 279 279 280 281 282 282 282 282 282 282 282 283 283 284 284 284 283
265 266 266 266 266 267 269 269 269 269 269 269 270 270 271 272 273 273 274 275 276 277 278 279 279 279 279 279 280 281 282 283 284 283 283 283 283 284 283 283 283 283 283
Height
5808 5810 5812 5814 5816 5818 5820 5822 5824 5825 5827 5828 5829 5831 5832 5833 5834 5835 5836 5836 5837 5837 5837 5837 5837 5837 5837 5836 5836 5836 5835 5834 5833 5832 5832 5831 5830 5828 5827 5826 5824 5823 5821
5802 5804 5806 5808 5810 5812 5814 5816 5818 5819 5821 5822 5824 5825 5826 5828 5829 5830 5830 5831 5831 5832 5832 5832 5832 5832 5832 5832 5831 5831 5830 5830 5829 5828 5827 5826 5825 5823 5822 5821 5819 5818 5817
5795 5798 5800 5802 5804 5806 5808 5810 5811 5813 5815 5816 5817 5819 5820 5821 5823 5824 5824 5825 5826 5826 5826 5827 5827 5827 5827 5826 5826 5826 5825 5825 5824 5823 5822 5821 5819 5818 5817 5815 5814 5813 5811
5788 5790 5793 5795 5797 5799 5801 5803 5804 5806 5808 5809 5811 5812 5813 5815 5816 5817 5818 5819 5819 5820 5820 5821 5821 5821 5821 5821 5820 5820 5820 5819 5818 5817 5816 5815 5814 5813 5811 5810 5808 5807 5805
5780 5782 5785 5787 5790 5792 5793 5795 5797 5799 5800 5802 5803 5805 5806 5808 5809 5810 5811 5812 5813 5813 5814 5814 5815 5815 5815 5815 5814 5814 5814 5813 5812 5811 5810 5809 5808 5806 5805 5803 5802 5801 5799
5772 5774 5776 5779 5781 5784 5786 5787 5789 5791 5792 5794 5795 5797 5799 5800 5801 5803 5804 5805 5806 5806 5807 5807 5808 5808 5808 5808 5808 5808 5807 5806 5806 5805 5804 5802 5801 5800 5799 5797 5795 5794 5792
5763 5765 5767 5770 5773 5775 5777 5779 5781 5783 5784 5786 5788 5789 5791 5792 5794 5795 5796 5797 5798 5799 5800 5800 5801 5801 5801 5801 5801 5800 5800 5799 5798 5798 5796 5795 5794 5793 5792 5790 5789 5787 5785
5754 5756 5759 5761 5764 5766 5768 5770 5773 5774 5776 5777 5779 5781 5783 5785 5786 5787 5788 5789 5790 5791 5792 5792 5793 5793 5793 5793 5793 5793 5792 5792 5791 5790 5789 5788 5787 5785 5784 5783 5781 5780 5778
5744 5747 5749 5752 5754 5757 5760 5762 5764 5766 5767 5769 5771 5773 5775 5776 5778 5779 5780 5781 5782 5783 5784 5784 5785 5785 5785 5785 5785 5785 5784 5784 5783 5782 5781 5780 5778 5777 5776 5774 5773 5771 5770
5735 5737 5740 5742 5745 5748 5750 5752 5754 5756 5758 5760 5762 5764 5766 5767 5769 5770 5772 5772 5773 5774 5775 5776 5776 5776 5776 5777 5777 5776 5776 5775 5774 5773 5772 5771 5769 5768 5767 5765 5764 5762 5761
5725 5727 5730 5732 5735 5738 5740 5742 5744 5746 5749 5751 5752 5754 5756 5757 5759 5761 5762 5764 5765 5765 5766 5766 5767 5767 5767 5767 5767 5767 5766 5765 5764 5763 5762 5761 5760 5759 5757 5755 5754 5752 5751
5715 5717 5719 5722 5725 5727 5730 5732 5734 5736 5739 5741 5742 5744 5746 5748 5749 5751 5752 5754 5755 5756 5756 5756 5757 5757 5757 5757 5757 5756 5756 5755 5754 5753 5752 5751 5749 5748 5747 5745 5744 5742 5740
5706 5707 5710 5712 5715 5717 5720 5721 5723 5726 5728 5730 5732 5734 5736 5737 5739 5740 5742 5743 5745 5746 5746 5746 5747 5747 5747 5747 5746 5746 5745 5744 5743 5742 5741 5739 5738 5737 5735 5734 5732 5731 5729
5696 5697 5699 5702 5704 5706 5709 5710 5712 5715 5717 5719 5721 5723 5725 5726 5728 5729 5731 5732 5734 5735 5736 5736 5736 5736 5736 5736 5735 5735 5734 5733 5732 5731 5730 5728 5727 5725 5724 5722 5720 5719 5717
5685 5686 5688 5691 5693 5695 5698 5700 5701 5704 5706 5708 5710 5712 5714 5715 5717 5718 5720 5721 5722 5724 5725 5726 5725 5725 5725 5725 5724 5723 5722 5721 5720 5719 5718 5716 5715 5713 5712 5710 5708 5706 5705
5673 5675 5677 5680 5682 5684 5686 5688 5690 5693 5695 5697 5698 5700 5702 5704 5705 5707 5708 5709 5710 5711 5713 5714 5714 5713 5713 5713 5712 5711 5710 5709 5708 5707 5705 5704 5702 5700 5699 5697 5695 5693 5692
5663 5664 5667 5669 5671 5673 5675 5677 5679 5681 5683 5685 5686 5688 5690 5692 5693 5695 5696 5697 5697 5698 5699 5702 5701 5701 5700 5700 5699 5698 5697 5696 5695 5694 5692 5691 5689 5687 5686 5684 5681 5679 5678
5652 5654 5656 5658 5660 5662 5664 5666 5668 5669 5671 5673 5675 5676 5678 5680 5681 5682 5683 5684 5685 5686 5686 5688 5688 5688 5687 5687 5686 5686 5685 5683 5682 5680 5679 5677 5675 5673 5672 5669 5667 5665 5663
5641 5643 5645 5647 5649 5651 5653 5654 5656 5657 5659 5661 5663 5665 5666 5667 5668 5669 5670 5671 5672 5672 5673 5674 5674 5674 5674 5673 5672 5672 5671 5670 5668 5667 5665 5663 5661 5659 5657 5655 5652 5650 5648
5630 5632 5634 5636 5637 5639 5641 5643 5644 5646 5647 5649 5651 5652 5653 5654 5655 5656 5657 5658 5658 5659 5659 5659 5660 5660 5660 5659 5657 5657 5657 5656 5654 5652 5650 5648 5646 5644 5642 5639 5637 5635 5633
5620 5621 5623 5625 5627 5628 5629 5631 5632 5634 5635 5637 5639 5640 5641 5641 5642 5642 5643 5643 5644 5644 5644 5645 5645 5645 5645 5644 5643 5642 5641 5641 5640 5637 5635 5633 5631 5629 5626 5624 5622 5619 5617
5610 5611 5613 5614 5616 5617 5618 5619 5620 5622 5623 5625 5626 5627 5627 5628 5628 5629 5629 5628 5629 5629 5629 5629 5630 5629 5629 5628 5627 5626 5625 5624 5624 5623 5619 5618 5615 5613 5611 5609 5606 5603 5601
5601 5602 5603 5604 5605 5606 5607 5608 5609 5610 5611 5612 5613 5614 5614 5615 5614 5614 5614 5614 5614 5614 5614 5614 5614 5613 5613 5613 5611 5610 5608 5606 5606 5605 5602 5601 5599 5597 5595 5592 5589 5586 5584
5591 5591 5592 5593 5594 5595 5595 5596 5596 5597 5598 5599 5600 5600 5600 5601 5601 5600 5600 5600 5599 5599 5598 5598 5598 5597 5596 5594 5594 5593 5591 5590 5589 5587 5584 5584 5583 5581 5579 5576 5572 5569 5567
5580 5580 5581 5581 5582 5583 5583 5583 5583 5584 5584 5585 5585 5585 5585 5586 5586 5586 5586 5585 5585 5584 5582 5582 5581 5580 5579 5578 5576 5575 5574 5572 5572 5572 5568 5566 5565 5563 5562 5560 5556 5552 5550
5568 5568 5569 5569 5570 5570 5570 5570 5570 5570 5571 5571 5572 5572 5571 5571 5571 5570 5570 5570 5570 5569 5568 5567 5566 5564 5563 5562 5560 5558 5557 5555 5554 5554 5551 5548 5547 5544 5544 5544 5540 5536 5533